Airfield :
LOGIN :

Register | Disclaimer

   EN    FR    IT 

 










Legend :    VFR   Marginal VFR   IFR   Intensive IFR   Very Intensive IFR
Visi :
Ceiling :
>= 8 km
>= 3000ft
5 to 8 km
1000 to 3000 ft
1500m to 5 km
500 to 1000 ft
800 to 1500m
200 to 500 ft
< 800m
< 200 ft
Symbols :   Thunderstorms  Fog  Heavy snow  Heavy precipitations  Wind > 20 kt
SIGMETs :     Misc.  Thunderstorms  Icing  Turbulence  Mountain Waves  Volcanic Ashes







- Airport Elevation : 53 ft
- IATA code : HRT


EGXU - RAF Linton-on-Ouse

CURRENT METAR :
  • 211650Z AUTO 27008KT 9999 // OVC060/// 14/09 Q1013

EXPIRED METARs :
  • 211550Z 26008KT 9999 FEW025 BKN050 15/10 Q1012 BLU NOSIG
  • 211450Z 27009KT 9999 FEW018 BKN050 15/11 Q1012 BLU NOSIG

TAF TAF EGXU
Valid from the 21 at 15:00 until the 21 at 18:00 UTC


211333Z 2115/2118 25008KT 9999 BKN030
PROB30
TEMPO 2115/2116 SCT018
No reported NOTAMs for that airfield.



MET'MAP, your aeronautical weather chart ! - Copyright ORBIFLY December 2007 - Disclaimer

ORBIFLY MET'MAP TEAM :

Programming & Development : Alexandra Zaïnal
Concept & Development : Baudouin d'Aumeries
Co-Development & Prog : Marc-Olivier Méhu
Technical & hardware support : Manuel Goepfert

Contact : metmap@orbifly.com




SOURCES & CREDITS :

   NOAA